Theta_e
281 279 277 276 276 276 275 275 275 276 276 276 277 279 280 280 281 281 280 280 280 280 281 282 282 283 283 285 285 287 286 286 283 287 287 286 286 286 287 288 289 291 292
280 278 277 276 275 275 274 274 275 275 275 276 277 278 279 280 280 280 279 279 280 279 279 280 281 282 283 284 284 286 286 287 285 284 286 285 285 285 285 285 286 288 289
279 277 276 274 274 274 273 273 273 273 274 275 276 277 278 279 281 281 279 278 279 279 279 279 280 281 281 282 284 285 287 287 286 286 285 286 285 285 285 285 285 286 287
278 276 275 274 273 272 272 271 271 272 272 273 274 275 276 279 281 280 279 278 278 279 279 279 280 281 281 282 285 285 286 286 286 285 285 285 286 285 285 285 284 286 285
276 275 273 273 271 270 269 269 270 271 272 271 273 274 276 278 281 280 278 277 278 277 278 278 280 281 282 285 285 285 284 284 284 284 283 284 283 285 284 285 284 284 284
274 272 272 270 269 269 269 269 270 270 271 271 272 272 274 277 281 280 278 276 277 276 276 278 280 281 283 285 285 285 285 283 282 282 282 282 282 283 285 285 284 284 282
273 271 269 268 268 268 268 269 269 270 271 271 271 273 274 275 280 280 277 276 276 275 275 277 278 281 284 284 284 285 284 285 285 283 281 281 282 283 285 285 285 284 282
271 270 268 268 268 267 268 268 269 271 272 272 272 272 274 275 280 279 276 276 275 274 275 276 277 280 283 283 282 283 284 284 284 284 283 283 283 284 285 286 285 284 284
270 269 268 268 267 267 267 268 270 272 272 273 273 272 273 274 278 279 276 275 274 274 275 276 277 281 282 283 281 281 282 282 285 284 284 284 283 284 284 286 284 283 282
270 269 268 269 268 268 269 269 271 272 272 273 273 273 271 273 276 278 276 275 273 274 275 276 278 281 281 281 280 279 279 279 281 282 283 283 283 282 282 283 284 283 282
271 269 268 269 269 269 269 270 270 272 272 272 272 273 273 273 275 277 277 275 273 274 274 275 277 279 279 280 280 278 278 280 281 282 282 282 282 282 282 282 282 284 283
269 268 268 269 270 270 269 270 270 271 271 271 272 273 273 273 275 275 276 275 274 273 272 275 276 278 277 278 278 278 279 279 281 281 281 280 280 281 282 282 282 283 284
269 268 268 269 270 270 270 270 270 271 271 271 272 272 272 273 274 274 274 274 273 272 272 274 275 276 276 274 276 277 276 276 277 277 278 279 281 282 283 283 283 283 284
269 268 269 269 269 270 271 271 271 271 271 271 271 272 272 273 274 274 273 273 273 272 270 271 272 274 275 275 274 274 274 274 274 275 277 279 282 283 282 283 282 283 283
269 269 269 270 270 270 270 271 271 272 273 272 272 273 273 272 273 274 273 272 272 270 269 271 271 271 271 271 273 273 273 273 273 274 275 277 279 281 281 282 282 283 282
269 269 269 270 270 270 269 270 273 273 274 274 274 274 274 275 274 274 273 272 271 270 268 268 267 268 267 268 269 271 272 271 271 272 273 275 276 279 280 281 281 281 280
270 270 270 270 269 269 270 270 270 273 276 275 275 275 274 274 273 273 271 271 270 268 266 265 265 265 265 266 267 269 269 270 271 271 271 273 275 277 279 279 280 280 280
271 270 270 270 270 270 270 271 272 272 271 272 273 274 274 273 272 271 270 269 267 265 264 264 263 264 264 264 265 266 268 269 270 269 270 271 272 275 277 278 278 278 279
271 270 271 271 270 270 271 272 273 272 270 268 267 269 266 273 271 269 268 266 266 264 264 263 263 263 263 264 264 265 266 267 268 268 269 270 270 273 275 277 278 277 278
272 271 271 270 269 270 270 270 270 269 268 267 267 269 267 267 267 265 264 265 265 264 264 264 263 263 262 263 263 264 266 266 266 267 268 269 270 272 273 276 277 277 277
272 271 270 270 269 269 269 269 269 268 267 266 266 266 267 268 266 266 264 264 264 264 263 263 263 263 262 263 263 264 264 266 265 265 267 268 269 270 272 276 278 277 278
271 270 270 269 269 268 268 269 268 267 266 265 264 266 271 266 265 265 264 264 263 262 261 262 263 262 260 261 261 263 264 264 264 264 265 267 268 270 272 275 277 278 278
271 270 270 269 269 268 268 267 266 266 265 265 264 265 268 265 265 264 264 263 261 261 260 260 261 261 260 260 260 260 261 262 262 263 264 265 268 269 271 273 275 276 277
271 270 269 268 268 267 267 266 266 265 265 264 264 265 265 264 264 263 263 262 261 260 259 258 259 259 259 260 261 261 261 262 265 266 264 265 267 269 271 272 274 275 277
270 270 269 268 267 267 266 266 265 265 264 263 263 263 264 263 262 262 262 260 259 260 259 258 258 258 258 257 258 259 259 261 265 263 265 266 267 268 269 271 273 275 276
271 270 269 268 267 267 266 265 265 264 264 264 263 263 262 261 262 261 260 258 258 258 259 259 259 258 258 259 258 259 260 265 266 261 264 266 266 267 269 270 272 274 275
Wind_Speed
12 10 9 7 6 5 5 3 3 3 5 6 6 6 8 9 10 11 11 10 11 11 12 13 14 15 11 10 10 9 9 7 6 3 4 6 7 7 8 8 10 9 9
12 11 9 8 6 5 5 4 3 3 5 5 6 6 8 9 9 11 12 11 10 12 13 13 14 12 14 15 11 13 11 10 4 6 5 6 7 6 6 8 7 8 9
13 12 11 9 7 5 5 4 3 3 4 4 5 6 8 8 8 11 11 11 10 10 12 13 13 15 15 13 12 11 11 9 8 4 4 3 4 3 6 6 6 7 7
14 12 11 10 8 6 6 4 2 2 4 4 5 5 7 8 10 11 11 10 10 9 10 12 12 14 15 14 11 11 11 9 9 7 5 4 3 3 3 3 6 5 6
14 10 9 9 8 7 5 4 3 3 4 3 4 5 6 7 9 12 12 9 9 10 10 11 11 15 20 17 9 11 11 9 8 8 7 5 5 3 3 2 4 4 6
12 11 11 10 9 7 6 5 4 3 4 4 4 5 6 6 16 14 14 8 8 9 9 11 12 13 18 19 19 18 15 11 10 8 7 8 8 5 3 2 2 0 2
13 11 11 11 9 8 7 5 4 3 4 5 4 4 6 7 17 14 15 7 7 8 8 10 10 10 13 13 16 15 14 16 15 8 9 8 7 8 4 1 3 3 3
13 12 11 10 10 9 7 6 5 3 4 4 4 4 5 6 16 14 13 7 7 7 7 9 11 12 14 14 11 11 9 9 9 7 8 7 7 8 5 3 3 5 5
14 14 12 11 11 10 9 7 5 4 4 4 3 5 6 7 16 16 11 6 6 6 7 9 11 11 18 19 12 11 10 10 9 12 12 12 12 14 10 1 4 3 3
16 15 12 11 11 11 10 8 5 4 4 3 3 4 4 8 14 15 11 6 6 5 6 8 15 16 19 18 11 10 10 10 10 9 7 9 10 10 14 7 4 0 3
15 15 13 11 11 11 11 7 7 6 5 3 3 3 6 6 9 14 14 6 5 4 5 7 8 18 17 18 16 10 10 9 10 7 7 6 7 8 7 6 5 4 1
17 15 14 12 10 9 10 8 7 6 5 4 3 2 4 6 10 12 12 11 8 5 6 7 8 15 14 17 14 18 17 11 7 7 7 7 6 7 6 6 6 5 5
15 16 14 12 11 11 11 10 8 6 5 4 2 2 4 4 5 11 11 12 11 5 5 9 12 14 14 12 19 19 13 9 8 8 7 7 7 5 4 2 3 4 6
17 16 14 13 13 10 8 8 8 7 6 4 3 3 3 4 6 6 6 6 7 5 6 6 8 10 12 11 10 12 9 9 8 8 7 7 7 6 5 4 2 4 6
16 15 14 11 12 11 8 8 7 6 6 6 4 3 4 5 7 10 9 5 5 7 4 6 7 7 9 9 9 9 9 9 9 8 8 8 7 7 6 4 4 4 5
17 14 13 12 11 9 9 8 9 10 11 10 8 4 3 7 9 11 12 12 10 9 5 6 7 7 8 8 9 9 9 10 9 9 8 8 7 7 6 6 6 6 5
18 17 13 13 12 11 10 10 11 10 13 12 8 9 7 7 9 10 10 13 14 9 8 6 6 6 7 7 8 8 9 8 9 8 8 8 8 7 7 7 6 5 5
16 21 14 13 12 12 11 10 9 10 10 8 5 6 8 8 7 5 8 6 6 8 7 6 5 5 5 6 7 7 8 8 9 8 8 8 8 7 6 6 6 5 4
16 14 14 12 11 12 11 10 9 9 9 8 4 3 2 10 9 10 12 5 6 5 5 5 4 4 5 5 6 7 7 8 8 8 8 7 7 7 6 6 5 7 5
15 19 16 13 12 12 11 11 10 9 9 8 7 7 5 3 3 3 3 3 4 4 4 4 3 4 4 5 6 7 7 8 8 8 7 7 7 6 6 6 5 5 6
12 14 18 13 13 13 12 11 10 9 8 8 7 6 10 5 5 5 4 3 3 3 3 4 3 3 4 4 5 6 6 7 7 8 7 7 7 7 7 6 5 5 4
14 14 13 13 13 13 12 10 10 9 8 8 7 7 14 4 5 5 4 4 3 2 1 3 3 3 3 4 4 6 6 7 8 8 8 7 7 7 7 6 5 5 4
14 15 14 12 11 14 12 11 10 10 9 8 8 8 8 6 6 5 5 4 4 3 2 1 3 2 2 2 3 3 5 6 6 7 8 7 7 7 6 6 6 5 5
16 17 16 13 13 12 12 12 10 11 10 9 9 8 7 6 6 6 5 4 4 4 3 2 1 2 1 2 2 3 3 5 6 6 8 7 7 8 6 6 6 6 5
16 16 16 15 15 13 13 11 11 10 10 9 8 8 7 6 6 6 5 4 3 4 4 3 2 2 2 1 2 5 7 9 6 6 5 6 7 9 7 6 7 6 6
16 16 14 13 13 13 13 13 12 11 11 9 9 8 8 7 7 6 6 5 4 4 4 3 3 3 2 1 1 4 7 9 4 6 5 5 5 6 6 7 10 6 7
Wind_Direction
169 162 156 151 146 125 105 81 41 24 26 2 346 354 359 6 7 0 358 347 351 350 347 344 344 347 350 343 340 345 350 350 331 327 11 4 20 33 33 43 39 49 62
165 160 158 149 150 133 111 94 52 32 39 5 345 359 3 9 6 2 357 346 348 352 348 346 348 345 352 348 339 355 350 354 335 338 8 13 37 28 30 41 36 37 45
163 159 157 152 149 131 117 106 66 35 41 23 347 5 358 359 348 5 355 347 343 355 348 345 348 345 350 341 339 356 358 357 360 351 14 16 44 33 59 43 43 50 48
163 161 159 154 147 140 130 121 82 42 59 33 341 346 342 347 11 2 358 348 344 355 353 347 348 346 343 337 351 359 359 0 2 11 14 9 17 23 44 56 63 41 57
162 154 149 140 135 138 139 125 102 55 59 33 346 356 354 3 359 12 356 351 349 354 359 353 343 336 343 353 359 7 3 5 10 12 14 19 17 10 18 44 77 74 48
149 146 144 143 147 151 142 132 122 98 67 53 9 7 2 355 352 21 360 346 356 1 357 354 347 347 344 3 6 19 17 11 17 11 11 16 6 3 8 50 97 172 92
146 144 149 151 153 155 144 142 135 105 81 61 18 10 6 349 353 27 4 349 355 5 3 355 352 346 345 2 0 15 19 16 26 13 13 14 357 353 346 24 26 47 77
148 151 155 156 153 152 150 153 141 134 93 68 25 14 6 355 354 21 7 2 3 7 4 354 343 339 1 2 1 6 13 11 12 16 21 14 8 355 1 347 71 96 93
158 160 162 160 154 155 156 158 145 140 109 77 24 25 15 358 350 14 17 8 16 14 356 352 342 356 4 10 8 6 5 11 10 16 18 24 25 23 19 116 124 134 89
164 162 159 158 153 156 156 155 151 151 119 98 58 31 13 0 352 16 28 4 19 10 9 3 356 10 7 16 15 6 5 0 352 6 15 29 28 22 26 26 346 104 105
151 149 154 158 155 154 152 152 151 152 130 111 82 42 28 10 5 19 25 14 6 11 18 4 4 9 8 17 21 15 4 349 1 9 12 22 26 31 26 14 14 349 90
145 149 154 155 153 154 152 151 154 151 133 122 96 62 38 20 18 23 23 18 21 10 20 7 359 15 19 17 20 15 14 11 12 14 20 21 13 17 26 22 27 41 48
151 151 153 150 150 158 157 155 158 164 152 137 123 76 46 23 16 28 22 22 24 27 13 3 8 13 22 17 15 18 17 15 13 17 11 5 8 9 13 38 71 82 74
154 153 152 154 153 160 161 161 162 164 160 154 147 105 70 46 29 28 20 17 10 23 13 14 15 18 30 23 14 16 17 12 8 7 356 351 356 16 31 16 55 64 67
154 155 159 156 159 157 166 167 167 162 167 152 140 111 90 64 42 40 35 24 19 32 10 29 25 22 20 16 14 16 12 8 14 1 4 0 6 11 31 25 32 62 88
156 161 165 157 160 161 156 153 160 154 150 142 141 119 142 87 62 50 48 42 41 48 54 39 33 24 27 11 6 3 9 8 5 358 5 5 5 14 22 37 48 55 75
162 162 158 159 163 161 161 158 154 172 172 162 160 136 116 100 77 68 66 55 50 61 67 47 37 23 17 13 358 356 360 359 350 1 7 4 4 10 26 34 37 45 58
164 165 163 162 162 162 164 161 158 163 160 156 135 143 129 101 86 79 77 63 51 44 59 49 30 21 14 14 357 351 355 360 3 2 5 4 1 1 20 30 33 37 46
165 165 165 162 161 160 159 161 162 156 158 154 145 130 354 121 93 69 64 70 73 61 58 59 30 19 14 15 357 344 351 0 358 1 4 1 358 359 11 23 37 37 48
170 167 164 159 155 159 160 163 159 159 159 163 168 165 148 134 152 91 72 87 87 82 73 64 41 23 17 21 5 352 352 7 7 4 360 358 355 357 3 6 25 43 53
165 164 165 160 162 163 163 167 164 159 162 167 169 170 176 172 154 145 147 130 116 106 95 77 45 26 16 19 21 6 359 0 4 359 355 354 352 359 349 359 21 37 51
165 164 169 168 161 163 165 163 160 161 161 164 157 178 170 164 161 156 157 151 149 117 71 89 74 36 17 9 14 9 3 1 357 356 353 352 351 356 353 6 14 35 42
164 163 167 165 163 158 157 159 160 164 164 161 160 166 168 173 170 170 163 159 155 157 161 177 105 89 70 20 1 9 356 353 343 338 343 349 354 355 357 5 10 21 35
167 163 166 164 162 165 162 161 162 165 161 160 162 170 179 172 173 172 165 161 160 161 163 207 163 115 78 56 2 343 330 323 328 337 340 342 351 354 3 8 10 16 21
169 164 166 166 164 166 157 162 159 163 163 163 166 171 173 171 174 167 164 171 173 174 169 195 216 164 148 99 42 340 328 327 329 332 340 346 354 359 3 10 13 18 29
168 167 166 163 163 163 161 162 163 163 167 169 163 172 174 173 179 170 166 173 184 199 174 171 219 239 213 179 56 0 327 326 3 6 350 357 4 8 3 14 17 23 27